Terminal Aerodrome Forecast
Issued by NWS

Home | Current Version | Previous Version | Graphics & Text | Print | Product List | Glossary On
Versions: 1 2 3 4 5 6 7 8 9 10 11 12 13 14 15 16 17 18 19 20 21 22 23 24 25 26
000
FTUS43 KABR 221000 AAB
TAFATY
TAF AMD
KATY 221020Z 2210/2306 32009KT P6SM SCT009 SCT150
     FM221400 36013G21KT P6SM SCT150
     FM222200 02008KT P6SM SKC=

USA.gov is the U.S. government's official web portal to all federal, state and local government web resources and services.